QPF
0.13 0.13 0.12 0.11 0.09 0.08 0.06 0.06 0.05 0.04 0.03 0.03 0.02 0.01 0.01 0.01 0.00 0.01 0.01 0.01 0.01 0.01 0.02 0.02 0.04 0.04 0.05 0.06 0.07 0.08 0.09 0.10 0.10 0.09 0.09 0.07 0.04 0.02 0.02 0.01 0.00 0.00 0.00
0.09 0.10 0.11 0.11 0.09 0.07 0.05 0.03 0.03 0.02 0.02 0.02 0.01 0.01 0.01 0.01 0.01 0.01 0.01 0.01 0.01 0.01 0.02 0.02 0.02 0.03 0.04 0.06 0.06 0.06 0.08 0.09 0.11 0.11 0.10 0.09 0.07 0.05 0.03 0.02 0.01 0.01 0.00
0.09 0.08 0.07 0.07 0.07 0.06 0.04 0.02 0.02 0.01 0.01 0.01 0.02 0.01 0.01 0.01 0.01 0.01 0.01 0.01 0.01 0.00 0.01 0.01 0.02 0.02 0.04 0.06 0.05 0.06 0.07 0.08 0.11 0.13 0.14 0.11 0.09 0.06 0.05 0.03 0.02 0.01 0.01
0.09 0.09 0.08 0.06 0.07 0.06 0.05 0.02 0.01 0.01 0.01 0.02 0.02 0.02 0.01 0.01 0.01 0.01 0.01 0.01 0.01 0.00 0.00 0.01 0.01 0.03 0.05 0.06 0.06 0.06 0.07 0.09 0.13 0.15 0.17 0.15 0.12 0.09 0.08 0.08 0.06 0.03 0.02
0.07 0.06 0.06 0.05 0.05 0.04 0.04 0.03 0.03 0.02 0.02 0.02 0.03 0.03 0.03 0.02 0.02 0.03 0.02 0.02 0.01 0.01 0.00 0.00 0.01 0.02 0.02 0.03 0.04 0.07 0.10 0.11 0.13 0.14 0.17 0.18 0.18 0.15 0.13 0.11 0.10 0.08 0.04
0.03 0.03 0.03 0.03 0.03 0.02 0.02 0.03 0.03 0.02 0.02 0.02 0.03 0.04 0.04 0.02 0.02 0.03 0.02 0.02 0.02 0.01 0.01 0.00 0.01 0.01 0.01 0.01 0.01 0.03 0.06 0.08 0.10 0.11 0.13 0.15 0.15 0.18 0.19 0.18 0.15 0.11 0.08
0.02 0.02 0.02 0.03 0.03 0.02 0.02 0.02 0.02 0.02 0.03 0.03 0.03 0.04 0.05 0.03 0.03 0.02 0.02 0.03 0.03 0.03 0.01 0.01 0.00 0.01 0.01 0.02 0.02 0.01 0.02 0.02 0.04 0.07 0.11 0.14 0.14 0.15 0.15 0.18 0.20 0.18 0.16
0.01 0.01 0.01 0.01 0.02 0.02 0.01 0.01 0.01 0.02 0.02 0.03 0.04 0.05 0.06 0.05 0.03 0.02 0.02 0.03 0.05 0.04 0.02 0.01 0.01 0.01 0.02 0.02 0.01 0.02 0.03 0.03 0.03 0.04 0.07 0.08 0.09 0.11 0.13 0.15 0.19 0.19 0.18
0.00 0.00 0.00 0.00 0.01 0.01 0.01 0.01 0.00 0.01 0.01 0.01 0.03 0.03 0.04 0.04 0.03 0.02 0.03 0.05 0.07 0.06 0.02 0.01 0.01 0.01 0.02 0.02 0.01 0.02 0.04 0.04 0.02 0.02 0.04 0.05 0.05 0.06 0.08 0.11 0.15 0.18 0.19
0.00 0.00 0.00 0.00 0.00 0.00 0.00 0.00 0.00 0.00 0.00 0.00 0.01 0.01 0.02 0.02 0.03 0.02 0.04 0.07 0.08 0.08 0.05 0.03 0.03 0.02 0.03 0.02 0.01 0.03 0.06 0.03 0.01 0.01 0.02 0.03 0.04 0.04 0.06 0.08 0.12 0.15 0.16
0.00 0.00 0.00 0.00 0.00 0.00 0.00 0.00 0.00 0.00 0.00 0.00 0.00 0.01 0.01 0.01 0.02 0.02 0.03 0.05 0.08 0.09 0.08 0.06 0.04 0.04 0.04 0.03 0.02 0.03 0.03 0.02 0.01 0.01 0.01 0.02 0.02 0.03 0.04 0.05 0.08 0.10 0.11
0.00 0.00 0.00 0.00 0.00 0.00 0.00 0.00 0.00 0.00 0.00 0.00 0.00 0.01 0.00 0.01 0.01 0.02 0.03 0.04 0.05 0.06 0.06 0.04 0.03 0.05 0.04 0.04 0.03 0.03 0.02 0.01 0.01 0.02 0.02 0.02 0.02 0.02 0.02 0.02 0.02 0.04 0.06
0.00 0.00 0.00 0.00 0.00 0.00 0.00 0.00 0.00 0.00 0.00 0.00 0.00 0.01 0.00 0.01 0.01 0.02 0.03 0.03 0.03 0.03 0.03 0.04 0.04 0.04 0.04 0.03 0.03 0.02 0.02 0.02 0.02 0.03 0.04 0.03 0.02 0.01 0.01 0.01 0.01 0.02 0.02
0.00 0.00 0.00 0.00 0.00 0.00 0.00 0.00 0.00 0.00 0.00 0.00 0.00 0.01 0.01 0.01 0.01 0.02 0.02 0.01 0.02 0.02 0.01 0.02 0.03 0.04 0.04 0.03 0.02 0.03 0.03 0.03 0.02 0.02 0.02 0.02 0.01 0.01 0.01 0.01 0.02 0.02 0.02
0.00 0.00 0.00 0.00 0.00 0.00 0.00 0.00 0.00 0.00 0.00 0.00 0.01 0.01 0.01 0.01 0.01 0.02 0.01 0.02 0.02 0.02 0.02 0.02 0.02 0.03 0.04 0.03 0.03 0.02 0.02 0.02 0.02 0.01 0.01 0.02 0.02 0.01 0.01 0.01 0.01 0.01 0.01
0.00 0.00 0.00 0.00 0.00 0.00 0.00 0.00 0.00 0.00 0.00 0.00 0.00 0.01 0.01 0.01 0.01 0.01 0.01 0.02 0.03 0.03 0.03 0.03 0.03 0.03 0.03 0.03 0.03 0.02 0.01 0.01 0.02 0.02 0.02 0.01 0.01 0.01 0.01 0.01 0.01 0.02 0.02
0.00 0.00 0.00 0.00 0.00 0.00 0.00 0.00 0.00 0.00 0.00 0.00 0.00 0.00 0.00 0.00 0.01 0.01 0.02 0.03 0.03 0.03 0.04 0.03 0.03 0.02 0.03 0.02 0.02 0.02 0.02 0.01 0.01 0.02 0.02 0.01 0.01 0.01 0.01 0.01 0.01 0.01 0.02
0.00 0.00 0.00 0.00 0.00 0.00 0.00 0.00 0.00 0.01 0.01 0.00 0.00 0.00 0.00 0.00 0.00 0.01 0.01 0.02 0.02 0.02 0.02 0.02 0.02 0.02 0.03 0.04 0.03 0.02 0.02 0.01 0.01 0.01 0.01 0.01 0.01 0.01 0.01 0.01 0.01 0.02 0.02
0.00 0.00 0.00 0.00 0.00 0.00 0.00 0.00 0.00 0.00 0.00 0.00 0.00 0.00 0.00 0.01 0.01 0.01 0.01 0.01 0.01 0.00 0.01 0.01 0.01 0.02 0.02 0.02 0.01 0.01 0.01 0.01 0.01 0.01 0.01 0.00 0.00 0.01 0.01 0.01 0.01 0.01 0.01
0.00 0.00 0.00 0.00 0.00 0.00 0.00 0.00 0.00 0.00 0.00 0.00 0.00 0.00 0.00 0.01 0.01 0.01 0.00 0.01 0.01 0.01 0.01 0.01 0.01 0.01 0.01 0.00 0.00 0.00 0.00 0.00 0.00 0.00 0.00 0.00 0.00 0.01 0.01 0.01 0.01 0.01 0.01
0.00 0.00 0.00 0.00 0.00 0.00 0.00 0.00 0.00 0.00 0.00 0.00 0.00 0.00 0.00 0.00 0.01 0.01 0.01 0.01 0.01 0.01 0.01 0.00 0.00 0.00 0.00 0.00 0.00 0.00 0.00 0.00 0.00 0.00 0.01 0.00 0.00 0.00 0.01 0.01 0.01 0.01 0.01
0.00 0.00 0.00 0.00 0.00 0.00 0.00 0.00 0.00 0.00 0.00 0.00 0.00 0.00 0.00 0.00 0.00 0.00 0.00 0.00 0.00 0.01 0.01 0.00 0.00 0.00 0.00 0.00 0.00 0.00 0.00 0.00 0.00 0.00 0.00 0.00 0.00 0.00 0.01 0.01 0.01 0.01 0.01
0.00 0.00 0.00 0.00 0.00 0.00 0.00 0.00 0.00 0.00 0.00 0.00 0.00 0.00 0.00 0.00 0.00 0.00 0.00 0.00 0.00 0.00 0.00 0.00 0.00 0.00 0.00 0.00 0.00 0.00 0.00 0.00 0.00 0.00 0.00 0.00 0.00 0.00 0.01 0.01 0.01 0.00 0.00
0.00 0.00 0.00 0.00 0.00 0.00 0.00 0.00 0.00 0.00 0.00 0.00 0.00 0.00 0.00 0.00 0.00 0.00 0.00 0.00 0.00 0.00 0.00 0.00 0.00 0.00 0.00 0.00 0.00 0.00 0.00 0.00 0.00 0.00 0.00 0.00 0.00 0.00 0.00 0.00 0.00 0.00 0.00
0.00 0.00 0.00 0.00 0.00 0.00 0.00 0.00 0.00 0.00 0.00 0.00 0.00 0.00 0.00 0.00 0.00 0.00 0.00 0.00 0.00 0.00 0.00 0.00 0.00 0.00 0.00 0.00 0.00 0.00 0.00 0.00 0.00 0.00 0.00 0.00 0.00 0.00 0.00 0.00 0.00 0.00 0.00
0.00 0.00 0.00 0.00 0.00 0.00 0.00 0.00 0.00 0.00 0.00 0.00 0.00 0.00 0.00 0.00 0.00 0.00 0.00 0.00 0.00 0.00 0.00 0.00 0.00 0.00 0.00 0.00 0.00 0.00 0.00 0.00 0.00 0.00 0.00 0.00 0.00 0.00 0.00 0.00 0.00 0.00 0.00
MSLP
1012.83 1012.53 1012.26 1012.03 1011.84 1011.69 1011.57 1011.50 1011.46 1011.48 1011.55 1011.69 1011.89 1012.15 1012.46 1012.80 1013.15 1013.48 1013.78 1014.04 1014.24 1014.41 1014.54 1014.65 1014.75 1014.86 1014.98 1015.09 1015.20 1015.29 1015.35 1015.37 1015.36 1015.32 1015.28 1015.24 1015.23 1015.26 1015.35 1015.49 1015.67 1015.89 1016.11
1013.13 1012.75 1012.40 1012.11 1011.85 1011.66 1011.52 1011.43 1011.41 1011.44 1011.54 1011.71 1011.93 1012.21 1012.52 1012.86 1013.19 1013.49 1013.76 1013.97 1014.13 1014.24 1014.32 1014.37 1014.43 1014.49 1014.57 1014.67 1014.79 1014.90 1015.00 1015.07 1015.11 1015.13 1015.13 1015.12 1015.12 1015.15 1015.21 1015.30 1015.43 1015.59 1015.77
1013.45 1013.05 1012.68 1012.35 1012.08 1011.87 1011.72 1011.62 1011.59 1011.62 1011.72 1011.87 1012.07 1012.32 1012.60 1012.90 1013.18 1013.44 1013.66 1013.83 1013.94 1014.01 1014.04 1014.06 1014.08 1014.13 1014.20 1014.30 1014.42 1014.56 1014.69 1014.81 1014.91 1014.98 1015.02 1015.05 1015.06 1015.09 1015.13 1015.19 1015.27 1015.37 1015.49
1013.80 1013.43 1013.08 1012.77 1012.51 1012.31 1012.15 1012.04 1011.99 1011.99 1012.04 1012.13 1012.28 1012.46 1012.66 1012.88 1013.09 1013.28 1013.44 1013.57 1013.64 1013.69 1013.71 1013.72 1013.74 1013.78 1013.86 1013.97 1014.12 1014.28 1014.45 1014.61 1014.75 1014.86 1014.94 1014.99 1015.03 1015.05 1015.08 1015.11 1015.16 1015.22 1015.28
1014.19 1013.88 1013.59 1013.33 1013.10 1012.91 1012.75 1012.63 1012.53 1012.47 1012.45 1012.46 1012.50 1012.58 1012.68 1012.79 1012.91 1013.03 1013.13 1013.21 1013.27 1013.31 1013.34 1013.37 1013.41 1013.49 1013.59 1013.73 1013.89 1014.07 1014.26 1014.44 1014.60 1014.74 1014.84 1014.91 1014.96 1015.00 1015.02 1015.04 1015.07 1015.09 1015.12
1014.61 1014.38 1014.16 1013.96 1013.77 1013.60 1013.44 1013.29 1013.15 1013.02 1012.90 1012.80 1012.73 1012.68 1012.65 1012.66 1012.68 1012.71 1012.76 1012.81 1012.86 1012.91 1012.98 1013.05 1013.14 1013.26 1013.40 1013.56 1013.74 1013.94 1014.13 1014.31 1014.46 1014.59 1014.70 1014.78 1014.84 1014.88 1014.91 1014.93 1014.95 1014.97 1014.98
1015.02 1014.87 1014.73 1014.59 1014.45 1014.30 1014.14 1013.96 1013.76 1013.56 1013.35 1013.14 1012.95 1012.77 1012.63 1012.52 1012.45 1012.41 1012.41 1012.44 1012.50 1012.58 1012.69 1012.81 1012.96 1013.12 1013.30 1013.49 1013.68 1013.86 1014.03 1014.19 1014.32 1014.42 1014.51 1014.58 1014.63 1014.67 1014.71 1014.75 1014.79 1014.82 1014.84
1015.40 1015.33 1015.26 1015.17 1015.07 1014.94 1014.77 1014.57 1014.33 1014.06 1013.78 1013.47 1013.18 1012.90 1012.66 1012.45 1012.30 1012.20 1012.16 1012.18 1012.25 1012.36 1012.51 1012.69 1012.89 1013.10 1013.31 1013.51 1013.69 1013.85 1013.99 1014.09 1014.17 1014.23 1014.28 1014.32 1014.35 1014.40 1014.46 1014.51 1014.58 1014.63 1014.68
1015.73 1015.71 1015.69 1015.65 1015.58 1015.47 1015.31 1015.09 1014.83 1014.52 1014.18 1013.82 1013.45 1013.10 1012.78 1012.50 1012.29 1012.14 1012.07 1012.08 1012.15 1012.29 1012.47 1012.70 1012.94 1013.18 1013.41 1013.61 1013.78 1013.90 1013.99 1014.03 1014.05 1014.04 1014.04 1014.04 1014.06 1014.10 1014.17 1014.25 1014.34 1014.44 1014.52
1015.98 1016.00 1016.02 1016.01 1015.97 1015.88 1015.73 1015.52 1015.26 1014.94 1014.58 1014.19 1013.78 1013.39 1013.02 1012.70 1012.44 1012.26 1012.16 1012.15 1012.22 1012.37 1012.57 1012.81 1013.08 1013.34 1013.57 1013.77 1013.91 1014.00 1014.03 1014.02 1013.97 1013.90 1013.84 1013.80 1013.80 1013.83 1013.90 1014.00 1014.13 1014.26 1014.38
1016.15 1016.19 1016.24 1016.26 1016.24 1016.17 1016.05 1015.87 1015.62 1015.32 1014.97 1014.59 1014.18 1013.78 1013.39 1013.05 1012.76 1012.55 1012.42 1012.38 1012.43 1012.57 1012.77 1013.01 1013.28 1013.54 1013.77 1013.96 1014.08 1014.13 1014.12 1014.06 1013.96 1013.84 1013.73 1013.66 1013.62 1013.64 1013.71 1013.82 1013.96 1014.12 1014.27
1016.23 1016.30 1016.36 1016.41 1016.42 1016.38 1016.29 1016.15 1015.95 1015.69 1015.37 1015.02 1014.64 1014.25 1013.87 1013.52 1013.21 1012.97 1012.81 1012.73 1012.75 1012.86 1013.03 1013.26 1013.51 1013.76 1013.98 1014.16 1014.26 1014.30 1014.26 1014.16 1014.03 1013.88 1013.74 1013.63 1013.57 1013.58 1013.64 1013.75 1013.89 1014.05 1014.20
1016.26 1016.34 1016.42 1016.49 1016.53 1016.53 1016.49 1016.39 1016.24 1016.04 1015.78 1015.48 1015.15 1014.79 1014.42 1014.07 1013.75 1013.48 1013.28 1013.17 1013.14 1013.20 1013.33 1013.52 1013.75 1013.98 1014.19 1014.35 1014.45 1014.48 1014.44 1014.34 1014.19 1014.02 1013.87 1013.74 1013.66 1013.64 1013.69 1013.78 1013.91 1014.06 1014.20
1016.26 1016.35 1016.45 1016.54 1016.61 1016.65 1016.65 1016.61 1016.52 1016.38 1016.19 1015.94 1015.66 1015.34 1015.00 1014.66 1014.33 1014.04 1013.81 1013.65 1013.57 1013.58 1013.66 1013.81 1014.00 1014.20 1014.40 1014.56 1014.66 1014.70 1014.67 1014.57 1014.43 1014.27 1014.11 1013.97 1013.88 1013.84 1013.86 1013.93 1014.03 1014.15 1014.25
1016.24 1016.35 1016.47 1016.58 1016.68 1016.76 1016.81 1016.81 1016.78 1016.70 1016.57 1016.38 1016.15 1015.88 1015.57 1015.25 1014.93 1014.63 1014.37 1014.18 1014.05 1014.01 1014.04 1014.14 1014.30 1014.47 1014.65 1014.81 1014.92 1014.97 1014.95 1014.87 1014.75 1014.60 1014.44 1014.30 1014.19 1014.14 1014.13 1014.16 1014.22 1014.30 1014.36
1016.25 1016.37 1016.50 1016.64 1016.76 1016.87 1016.95 1017.00 1017.02 1016.99 1016.91 1016.79 1016.61 1016.39 1016.12 1015.83 1015.53 1015.24 1014.97 1014.75 1014.60 1014.52 1014.51 1014.57 1014.69 1014.84 1015.00 1015.15 1015.26 1015.31 1015.31 1015.25 1015.15 1015.01 1014.85 1014.71 1014.59 1014.50 1014.46 1014.45 1014.47 1014.50 1014.52
1016.29 1016.42 1016.56 1016.71 1016.85 1016.98 1017.09 1017.17 1017.22 1017.23 1017.21 1017.13 1017.01 1016.84 1016.63 1016.39 1016.13 1015.87 1015.62 1015.41 1015.24 1015.14 1015.11 1015.14 1015.22 1015.34 1015.48 1015.60 1015.70 1015.76 1015.76 1015.71 1015.61 1015.47 1015.32 1015.17 1015.03 1014.92 1014.84 1014.79 1014.76 1014.75 1014.72
1016.36 1016.49 1016.64 1016.79 1016.94 1017.08 1017.21 1017.31 1017.38 1017.43 1017.44 1017.42 1017.35 1017.25 1017.10 1016.92 1016.72 1016.51 1016.31 1016.12 1015.98 1015.88 1015.84 1015.85 1015.90 1015.99 1016.09 1016.19 1016.27 1016.31 1016.30 1016.24 1016.13 1015.99 1015.83 1015.66 1015.50 1015.36 1015.24 1015.15 1015.09 1015.03 1014.96
1016.44 1016.57 1016.72 1016.87 1017.02 1017.16 1017.29 1017.41 1017.50 1017.57 1017.62 1017.64 1017.63 1017.59 1017.52 1017.42 1017.29 1017.16 1017.02 1016.89 1016.78 1016.71 1016.67 1016.67 1016.71 1016.76 1016.83 1016.89 1016.93 1016.94 1016.90 1016.81 1016.69 1016.53 1016.35 1016.16 1015.98 1015.81 1015.66 1015.54 1015.43 1015.33 1015.23
1016.52 1016.64 1016.77 1016.92 1017.07 1017.21 1017.34 1017.46 1017.57 1017.66 1017.74 1017.80 1017.84 1017.87 1017.87 1017.85 1017.81 1017.76 1017.70 1017.64 1017.59 1017.55 1017.54 1017.54 1017.56 1017.59 1017.62 1017.63 1017.63 1017.59 1017.52 1017.40 1017.25 1017.07 1016.87 1016.65 1016.45 1016.25 1016.08 1015.92 1015.78 1015.66 1015.53
1016.56 1016.67 1016.79 1016.93 1017.07 1017.21 1017.35 1017.47 1017.58 1017.69 1017.80 1017.90 1017.99 1018.07 1018.14 1018.20 1018.25 1018.28 1018.31 1018.32 1018.33 1018.34 1018.35 1018.36 1018.37 1018.37 1018.37 1018.34 1018.29 1018.21 1018.10 1017.95 1017.77 1017.56 1017.34 1017.11 1016.89 1016.68 1016.48 1016.30 1016.14 1015.98 1015.84
1016.55 1016.64 1016.76 1016.89 1017.03 1017.17 1017.30 1017.43 1017.55 1017.68 1017.80 1017.93 1018.06 1018.19 1018.32 1018.44 1018.56 1018.67 1018.77 1018.85 1018.92 1018.97 1019.01 1019.03 1019.04 1019.03 1018.99 1018.93 1018.85 1018.73 1018.58 1018.41 1018.21 1017.99 1017.75 1017.51 1017.28 1017.06 1016.85 1016.65 1016.47 1016.30 1016.14
1016.47 1016.55 1016.66 1016.79 1016.93 1017.08 1017.22 1017.35 1017.48 1017.62 1017.76 1017.90 1018.05 1018.22 1018.39 1018.56 1018.73 1018.89 1019.05 1019.18 1019.30 1019.39 1019.45 1019.49 1019.50 1019.48 1019.43 1019.35 1019.24 1019.10 1018.93 1018.74 1018.53 1018.30 1018.07 1017.83 1017.60 1017.38 1017.17 1016.96 1016.77 1016.59 1016.42
1016.33 1016.41 1016.51 1016.65 1016.79 1016.94 1017.09 1017.24 1017.38 1017.52 1017.67 1017.82 1017.99 1018.16 1018.35 1018.55 1018.75 1018.95 1019.14 1019.31 1019.46 1019.58 1019.67 1019.73 1019.75 1019.73 1019.67 1019.58 1019.46 1019.31 1019.14 1018.95 1018.74 1018.52 1018.30 1018.07 1017.85 1017.64 1017.43 1017.23 1017.04 1016.86 1016.68
1016.15 1016.22 1016.32 1016.46 1016.62 1016.78 1016.94 1017.10 1017.25 1017.40 1017.55 1017.71 1017.87 1018.05 1018.24 1018.45 1018.66 1018.87 1019.08 1019.28 1019.45 1019.60 1019.71 1019.79 1019.82 1019.81 1019.77 1019.68 1019.57 1019.42 1019.26 1019.07 1018.87 1018.67 1018.47 1018.26 1018.06 1017.86 1017.66 1017.47 1017.29 1017.11 1016.94
1015.93 1015.99 1016.10 1016.24 1016.40 1016.58 1016.75 1016.92 1017.08 1017.24 1017.39 1017.55 1017.72 1017.89 1018.08 1018.28 1018.49 1018.71 1018.93 1019.15 1019.34 1019.51 1019.64 1019.74 1019.80 1019.82 1019.79 1019.72 1019.62 1019.49 1019.34 1019.17 1018.99 1018.80 1018.61 1018.42 1018.24 1018.06 1017.88 1017.71 1017.54 1017.38 1017.22
Thickness
5688 5689 5690 5692 5694 5695 5696 5697 5698 5699 5700 5701 5702 5702 5701 5700 5699 5697 5695 5694 5692 5691 5690 5689 5688 5687 5686 5684 5683 5681 5680 5678 5675 5679 5680 5680 5681 5682 5683 5683 5685 5685 5685
5680 5682 5683 5685 5687 5689 5692 5693 5694 5694 5696 5698 5698 5698 5697 5695 5694 5693 5690 5689 5688 5687 5686 5685 5684 5683 5681 5680 5678 5678 5677 5676 5673 5672 5673 5673 5674 5675 5677 5678 5680 5681 5684
5675 5677 5679 5680 5682 5684 5687 5689 5691 5692 5693 5693 5693 5692 5691 5690 5688 5687 5686 5685 5684 5684 5683 5681 5680 5679 5677 5676 5674 5673 5673 5673 5671 5669 5669 5669 5668 5668 5669 5671 5674 5677 5678
5669 5671 5673 5675 5677 5680 5682 5684 5687 5689 5689 5688 5688 5686 5685 5685 5684 5683 5681 5681 5680 5679 5678 5678 5677 5676 5674 5673 5671 5670 5669 5668 5667 5666 5665 5664 5663 5663 5663 5664 5667 5670 5673
5664 5666 5667 5670 5672 5674 5676 5679 5680 5681 5682 5682 5682 5680 5679 5679 5679 5678 5677 5675 5676 5674 5673 5673 5673 5671 5668 5668 5667 5667 5666 5664 5663 5662 5661 5660 5658 5657 5657 5660 5661 5665 5668
5659 5660 5663 5665 5666 5668 5670 5672 5672 5673 5674 5675 5675 5674 5673 5674 5670 5668 5669 5670 5671 5670 5668 5668 5667 5665 5662 5660 5660 5659 5659 5660 5660 5659 5658 5656 5657 5656 5655 5655 5656 5657 5660
5656 5656 5657 5659 5660 5661 5664 5665 5665 5666 5667 5668 5669 5668 5668 5666 5663 5662 5662 5665 5665 5665 5665 5664 5662 5662 5658 5661 5657 5654 5655 5653 5653 5656 5656 5655 5655 5655 5653 5651 5651 5652 5654
5650 5651 5651 5652 5653 5654 5655 5656 5658 5660 5660 5660 5661 5661 5661 5659 5657 5657 5657 5660 5661 5661 5660 5661 5659 5659 5657 5657 5657 5655 5655 5654 5652 5652 5654 5654 5653 5652 5651 5649 5648 5647 5648
5645 5645 5645 5646 5646 5646 5646 5647 5649 5651 5651 5652 5653 5653 5654 5654 5651 5652 5652 5657 5656 5656 5656 5656 5656 5655 5648 5646 5649 5651 5650 5649 5646 5644 5644 5646 5645 5645 5645 5644 5643 5641 5642
5641 5640 5640 5640 5639 5639 5638 5639 5641 5642 5643 5644 5644 5645 5646 5647 5645 5646 5646 5651 5650 5649 5649 5649 5644 5645 5641 5640 5644 5646 5643 5644 5644 5644 5643 5642 5644 5643 5641 5641 5641 5640 5639
5638 5637 5635 5634 5634 5631 5631 5631 5632 5634 5634 5635 5635 5636 5636 5636 5638 5638 5639 5644 5645 5644 5643 5643 5641 5636 5635 5634 5636 5639 5637 5637 5639 5639 5640 5640 5640 5640 5639 5639 5639 5637 5636
5633 5631 5629 5627 5626 5625 5623 5623 5624 5625 5626 5626 5627 5627 5628 5629 5629 5630 5631 5633 5636 5638 5637 5637 5634 5630 5629 5628 5630 5628 5628 5629 5633 5634 5633 5632 5632 5632 5633 5633 5633 5633 5633
5631 5628 5625 5623 5620 5618 5617 5617 5617 5617 5617 5617 5618 5618 5619 5620 5621 5622 5623 5624 5625 5629 5628 5625 5624 5623 5623 5624 5621 5622 5624 5627 5627 5626 5625 5625 5625 5625 5626 5627 5628 5628 5627
5629 5626 5623 5620 5617 5614 5611 5611 5610 5609 5609 5609 5610 5610 5612 5613 5614 5616 5618 5619 5617 5619 5620 5616 5616 5616 5618 5616 5617 5619 5620 5620 5620 5619 5619 5619 5619 5619 5620 5620 5620 5620 5621
5629 5626 5623 5618 5614 5610 5607 5604 5604 5602 5601 5602 5604 5605 5605 5607 5605 5605 5610 5613 5613 5613 5613 5614 5614 5614 5614 5614 5614 5614 5614 5614 5614 5614 5614 5614 5613 5614 5613 5614 5613 5614 5613
5630 5626 5622 5618 5613 5611 5608 5605 5598 5598 5596 5596 5597 5599 5600 5598 5599 5600 5601 5602 5603 5604 5607 5606 5606 5606 5606 5607 5608 5608 5608 5607 5607 5608 5607 5607 5608 5608 5608 5608 5607 5607 5606
5630 5626 5623 5620 5616 5612 5610 5608 5605 5600 5596 5595 5594 5594 5594 5594 5595 5596 5596 5597 5598 5600 5602 5600 5599 5599 5600 5600 5601 5601 5600 5600 5601 5601 5601 5601 5601 5601 5601 5601 5600 5600 5599
5632 5626 5623 5621 5618 5615 5612 5610 5608 5605 5603 5599 5595 5592 5592 5592 5592 5593 5595 5597 5596 5596 5596 5595 5594 5594 5594 5594 5595 5595 5595 5595 5595 5595 5596 5596 5595 5595 5595 5594 5593 5591 5591
5634 5631 5627 5624 5620 5618 5615 5612 5610 5607 5605 5602 5600 5596 5593 5592 5593 5593 5595 5596 5594 5592 5591 5590 5590 5590 5590 5590 5590 5590 5590 5590 5590 5591 5591 5590 5590 5589 5588 5587 5587 5583 5583
5636 5629 5628 5627 5624 5621 5618 5616 5613 5610 5607 5605 5603 5600 5599 5598 5596 5594 5593 5592 5591 5588 5587 5587 5586 5587 5587 5587 5586 5586 5587 5587 5587 5587 5586 5585 5585 5584 5584 5582 5581 5580 5578
5641 5635 5628 5630 5628 5624 5621 5619 5615 5612 5610 5606 5602 5597 5595 5598 5595 5592 5591 5589 5588 5587 5585 5585 5584 5584 5583 5583 5583 5584 5584 5584 5583 5582 5582 5582 5581 5580 5579 5579 5577 5576 5573
5645 5642 5638 5635 5631 5627 5624 5622 5618 5615 5612 5609 5605 5601 5596 5598 5596 5594 5592 5590 5588 5586 5585 5584 5583 5581 5581 5581 5581 5582 5582 5581 5581 5580 5579 5579 5579 5578 5577 5575 5574 5572 5569
5648 5645 5641 5638 5634 5627 5627 5625 5622 5619 5615 5613 5609 5606 5602 5600 5597 5595 5593 5591 5589 5588 5586 5585 5584 5582 5581 5580 5579 5579 5580 5579 5578 5577 5577 5577 5577 5576 5575 5572 5570 5567 5563
5651 5648 5645 5641 5638 5634 5632 5629 5626 5622 5619 5616 5613 5610 5606 5602 5600 5597 5595 5593 5591 5589 5587 5585 5584 5583 5581 5580 5580 5579 5577 5576 5575 5576 5575 5575 5575 5574 5572 5569 5567 5563 5559
5654 5652 5649 5645 5642 5639 5636 5633 5630 5627 5623 5620 5617 5614 5609 5606 5602 5600 5597 5595 5592 5590 5588 5586 5585 5584 5583 5582 5580 5579 5576 5575 5574 5574 5575 5575 5573 5571 5569 5566 5563 5559 5554
5656 5654 5652 5649 5646 5643 5640 5637 5634 5631 5627 5624 5621 5618 5613 5609 5606 5603 5600 5597 5595 5592 5590 5588 5586 5585 5583 5583 5580 5578 5576 5575 5574 5573 5574 5574 5571 5568 5566 5563 5559 5555 5551